Location: Unspecified
(50.7693°N, 0.0000°E)
Time: 19:07:19
(UTC+00:00)

Vanguard 2 - Pass Details

Date: 17 June 2019
Orbit: 554 x 2938 km, 32.9° (Epoch: 23 August)

Event Time Altitude Azimuth Distance (km) Brightness Sun altitude
Rises 14:52:36 0° 262° (W) 5,251 12.5 47.1°
Reaches altitude 10° 14:56:47 10° 249° (WSW) 4,622 12.5 46.5°
Maximum altitude 15:06:09 22° 205° (SSW) 4,308 12.2 45.1°
Drops below altitude 10° 15:17:33 10° 163° (SSE) 5,702 12.1 43.4°
Sets 15:23:41 0° 151° (SSE) 6,782 12.2 42.5°
